OneWeb SL0157

operational
NORAD ID: 48055 Int'l Des: 2021-025 Owner: ONEWEBN Country: UK Constellation: oneweb
LEOCIRCULARPOLARONEWEB_TYPE

About OneWeb SL0157

Description loading...

Live Position

Loading 3D Globe...

Upcoming Passes

Altitude History

Altitude vs Time

uPlot chart will show altitude changes over time

Two-Line Element Set

1 48055U 21025P 25304.69710887 .00000319 00000-0 83958-3 0 9991
2 48055 87.9037 5.6258 0002157 90.9098 269.2278 13.13470711223577
Epoch: Oct 31, 2025 • Age: 9 hours

Current Status

Altitude 1212.8 km
Velocity 7.25 km/s
Sub-Earth Point -1.04°S, 63.1°W
Launch Date Mar 25, 2021
Age 4.6 years
Type internet

Technical Details

Classification Payload
Mass 148.00 kg
Dry Mass 140.00 kg
Total Mass 148.00 kg
Length 1.30 m
Diameter 1.00 m
Span 5.00 m
Shape Trapezoid+2 pan
Manufacturer ONEWUS
Bus Type ARROW
Phase Status In Orbit
Owner/State ONEWEBN/UK

Large Constellations

Loading constellations...